GEFSSE_500_meanwind_024.txt.gz
Wind_Speed
17 19 19 18 18 17 16 15 13 13 12 12 12 12 12 13 14 14 15 16 16 16 16 15 14 14 13 13 12 12 11 10 10 9 9 9 9 9 7 6 4 4 3
16 17 17 16 16 15 14 12 11 10 10 9 9 9 10 11 12 13 14 14 15 15 15 15 14 13 12 12 12 12 11 11 10 10 10 10 10 9 8 6 4 3 2
14 15 14 14 13 12 11 9 8 7 7 7 7 7 8 9 10 11 12 13 13 14 14 14 13 13 12 11 11 11 11 10 10 9 9 10 10 9 9 7 5 3 2
13 13 13 12 10 9 8 7 6 5 5 5 6 6 6 6 7 9 10 11 12 12 13 13 12 12 12 11 11 10 10 9 9 8 8 8 8 9 8 7 5 3 2
12 11 11 10 9 8 7 6 5 4 3 4 4 5 5 5 6 7 9 10 11 11 12 12 12 11 12 11 11 10 10 9 9 8 8 7 7 7 7 7 6 4 3
10 9 8 7 6 5 4 3 2 2 2 3 4 5 5 5 6 7 8 9 10 11 12 12 12 12 11 11 11 10 10 9 8 8 8 8 7 6 6 6 6 5 4
7 7 6 5 4 2 1 0 1 2 3 4 5 5 6 6 7 8 9 10 11 12 12 13 13 13 12 12 11 11 10 10 9 8 8 9 8 7 7 6 6 5 4
4 4 4 3 2 2 2 2 3 4 5 6 7 8 8 8 9 10 10 11 11 12 13 14 14 14 14 13 12 11 11 11 10 9 9 9 9 8 7 7 7 6 5
5 5 4 4 4 4 4 5 5 6 7 8 9 9 10 10 11 11 11 12 12 13 14 15 15 15 15 15 14 13 12 11 11 10 10 10 10 9 8 8 8 8 7
8 8 7 6 6 6 6 6 7 8 9 10 11 10 11 11 12 12 12 12 13 13 14 15 15 15 16 16 16 15 14 12 12 11 11 11 10 10 10 9 9 9 10
11 10 9 8 8 8 7 8 9 10 11 11 11 11 11 11 11 12 12 12 13 14 15 15 15 15 16 17 17 17 16 14 13 13 12 12 11 11 11 11 11 11 11
13 12 12 11 11 11 11 11 12 12 12 11 10 10 10 10 11 11 12 13 14 15 15 16 16 16 17 18 18 18 17 16 15 15 14 14 13 13 13 13 13 12 11
14 14 14 14 14 14 15 15 14 13 12 11 10 10 10 10 11 12 13 14 15 16 16 17 17 17 18 18 19 19 19 19 17 16 16 16 15 15 15 14 13 12 11
16 17 17 18 18 17 17 17 16 15 14 13 11 11 11 11 12 13 14 15 16 18 18 18 18 18 18 19 20 21 22 22 20 19 18 17 17 17 17 17 15 13 12
17 19 19 20 20 19 19 18 18 18 17 16 15 15 14 14 13 14 15 16 19 21 22 23 22 20 19 20 21 22 23 24 23 21 20 19 19 18 18 18 16 13 12
20 21 21 21 21 20 20 20 19 18 18 18 18 18 18 17 17 16 17 19 21 22 24 24 24 22 20 21 22 23 24 24 24 23 22 21 21 20 19 18 16 14 13
24 24 24 24 24 23 23 23 23 22 21 21 21 21 21 22 21 21 21 22 23 24 25 25 25 23 23 23 23 24 25 25 25 24 24 23 22 22 20 18 16 15 14
29 28 28 28 28 27 27 27 27 26 26 25 25 25 26 26 26 25 25 26 27 27 27 28 28 26 27 25 24 24 25 26 26 26 26 25 24 23 22 19 18 17 16
33 32 31 31 31 31 30 30 30 30 30 29 29 29 29 30 29 29 30 30 31 31 31 31 31 30 29 28 25 24 24 26 27 27 27 27 26 25 23 21 19 19 18
37 35 34 34 34 34 33 33 33 32 32 32 32 32 32 32 32 33 33 34 34 34 34 34 34 33 32 31 28 26 25 26 27 27 27 28 28 27 25 23 22 21 21
39 37 37 37 37 37 36 35 35 35 36 36 36 36 36 35 35 35 35 36 36 37 37 38 37 36 36 34 31 28 27 26 26 27 28 28 28 28 27 25 24 23 22
35 36 37 38 39 38 38 38 38 38 38 39 40 40 38 37 36 35 35 36 38 39 40 41 41 40 39 37 34 31 28 27 27 27 27 27 28 28 27 26 26 25 24
40 39 39 40 41 40 40 40 40 40 40 41 41 40 39 38 37 37 37 38 40 41 42 42 43 42 41 39 37 34 30 28 28 28 27 27 27 27 27 27 27 26 26
41 41 40 41 42 41 41 41 40 40 40 40 40 40 39 39 39 39 40 41 42 42 43 43 44 44 42 40 38 36 33 31 30 29 29 29 29 28 29 28 28 28 28
41 41 40 40 41 40 40 41 40 40 39 38 38 38 38 39 39 41 42 42 42 43 43 44 44 44 42 40 39 36 34 32 31 30 30 31 30 30 30 30 30 30 29
42 40 38 38 38 38 38 38 38 38 37 37 37 37 38 39 41 42 44 44 43 43 43 42 42 42 41 39 38 36 35 33 32 31 30 31 32 32 32 32 31 31 31

GEFSSE_500_meanwind_030.txt.gz
Wind_Speed
17 17 15 15 15 15 16 16 15 15 15 14 14 14 15 16 17 18 18 19 18 18 17 17 16 15 15 14 13 12 11 10 9 9 8 7 5 4 2 2 3 3 3
15 15 13 13 12 12 12 12 12 12 12 12 12 12 13 14 15 16 17 17 17 17 16 16 16 15 14 13 13 12 11 10 9 9 8 7 6 5 3 1 1 2 2
12 11 10 9 9 9 9 9 10 10 11 11 10 10 11 12 13 14 15 16 16 16 16 15 14 14 14 13 12 11 11 10 10 9 8 8 7 6 4 2 1 0 1
9 7 6 7 7 6 7 8 8 9 9 9 9 9 9 10 11 12 13 14 15 15 15 15 14 13 13 12 11 11 10 10 10 9 9 8 8 7 6 4 2 1 1
6 5 4 4 5 5 6 7 7 8 9 9 9 9 9 10 10 11 12 13 14 14 15 15 14 13 12 11 10 10 9 9 10 10 9 8 8 8 7 6 4 3 3
3 1 2 3 4 4 5 6 7 7 8 9 9 9 9 9 10 10 11 12 13 14 14 14 14 13 12 11 9 9 8 9 9 10 9 8 8 8 7 7 5 4 3
0 2 2 3 3 4 4 5 6 7 8 9 9 9 8 9 9 9 10 11 12 12 13 13 13 12 11 11 10 9 8 8 9 10 10 9 7 7 8 8 7 6 5
3 4 3 3 3 4 4 5 5 6 7 8 8 8 8 7 8 8 8 9 10 11 11 12 12 12 11 10 9 9 8 8 9 10 10 10 9 8 9 9 9 8 8
7 6 6 5 5 5 5 5 5 5 6 7 7 7 6 6 6 6 7 7 9 10 11 12 12 12 11 10 9 9 9 8 8 9 11 11 11 10 10 11 11 10 10
9 9 8 8 7 7 7 6 6 6 7 7 7 7 6 5 5 5 5 7 8 10 11 12 13 14 14 13 12 11 10 9 9 10 11 11 11 12 12 12 12 12 11
12 11 10 9 9 9 9 8 8 8 9 9 8 8 7 6 6 6 6 7 8 10 11 13 14 15 15 15 14 13 12 12 11 11 12 12 12 12 13 13 13 13 13
13 12 12 11 11 11 11 11 12 12 12 11 10 9 9 8 8 8 7 8 8 9 10 12 13 15 16 16 16 15 15 14 14 14 14 14 14 14 14 14 15 14 14
14 14 13 13 13 13 14 14 14 14 14 13 12 11 10 10 10 10 10 10 9 10 11 12 13 14 16 16 16 16 16 17 17 17 17 16 16 15 16 16 16 15 15
15 15 15 15 16 16 17 17 16 16 16 15 14 14 13 13 12 12 12 12 12 12 12 13 14 15 16 16 16 17 17 18 19 20 20 19 18 17 17 17 17 17 16
17 17 18 18 18 19 19 19 19 18 19 18 16 15 15 15 15 14 14 15 15 14 14 14 15 16 16 17 17 18 19 19 20 21 21 21 21 19 19 19 18 18 17
21 20 21 21 21 22 22 22 22 21 21 20 19 18 18 18 17 16 16 15 15 15 15 15 16 17 18 18 19 20 21 21 21 22 22 23 23 22 21 21 20 19 19
25 25 25 25 25 26 26 26 26 26 25 25 24 22 22 20 19 18 17 17 17 17 17 18 18 19 20 20 22 22 23 23 23 23 23 24 25 25 24 23 22 22 21
28 28 28 28 29 29 31 30 30 30 30 29 28 27 25 23 22 20 19 19 19 19 20 21 21 22 23 23 24 25 26 26 25 25 25 25 26 26 26 26 25 24 24
31 30 31 31 31 32 33 34 33 33 33 32 32 30 29 26 24 23 22 22 21 22 23 24 24 25 25 26 26 27 28 29 28 28 27 27 27 28 28 27 27 27 26
33 33 32 32 33 34 35 36 36 36 36 36 35 34 32 30 28 26 25 24 24 25 26 27 27 28 28 29 30 30 31 32 31 31 30 29 29 29 29 29 29 29 28
36 35 35 35 36 37 38 38 38 39 39 39 38 37 36 34 31 29 28 27 26 27 29 30 30 31 32 33 34 34 33 34 34 34 33 32 31 31 30 30 29 30 30
37 36 35 37 38 38 38 39 41 42 42 42 41 40 39 36 33 30 29 28 28 29 30 31 32 33 34 37 38 38 36 35 37 37 36 34 33 33 32 31 30 30 30
37 37 38 39 39 40 41 42 43 43 43 43 42 41 40 38 35 31 30 29 29 30 30 32 34 35 36 38 40 41 40 37 37 37 38 37 36 35 34 33 32 31 31
39 39 41 41 42 41 41 42 43 43 43 42 41 38 38 35 33 30 28 27 28 29 31 33 35 37 38 39 40 41 42 41 39 36 37 38 37 36 35 35 34 33 32
44 45 45 45 44 44 43 43 42 42 41 39 36 34 33 31 29 28 27 28 29 31 32 34 37 38 39 40 40 40 40 40 39 38 35 36 37 37 36 35 34 34 34
51 51 50 49 48 47 46 44 43 41 39 36 34 32 31 30 29 29 29 31 32 34 35 37 38 39 40 40 39 39 39 38 38 37 35 33 34 36 36 35 34 35 36

GEFSSE_500_meanwind_036.txt.gz
Wind_Speed
15 14 12 11 9 8 8 8 9 10 11 11 12 13 14 15 15 15 15 15 14 13 12 11 11 10 9 8 8 8 7 7 7 7 7 7 6 4 2 1 0 1 0
12 11 10 8 7 5 5 6 7 8 9 9 10 11 11 12 12 13 13 13 13 12 10 9 9 8 7 7 7 7 7 6 6 6 6 6 5 4 2 1 1 2 2
9 8 7 6 4 4 4 5 5 6 7 8 8 8 9 9 10 10 11 11 11 10 9 8 7 6 6 6 6 6 6 6 6 5 5 5 5 4 3 2 1 2 3
6 5 4 4 3 3 4 5 5 5 6 6 7 7 7 7 8 8 9 9 9 8 8 7 5 4 4 4 4 5 5 5 5 5 4 4 3 3 3 2 2 2 2
3 3 3 3 2 3 3 4 5 5 5 5 6 5 5 6 6 7 7 8 8 8 7 6 5 4 3 2 3 3 4 5 5 4 3 3 3 3 3 2 2 3 2
3 2 2 2 2 3 3 4 5 5 5 5 5 5 5 5 5 5 6 7 7 7 7 7 6 5 3 3 3 3 4 4 4 4 3 2 2 2 2 3 3 3 3
4 2 0 2 3 4 4 5 5 5 5 5 5 5 5 4 4 4 5 6 7 7 7 7 7 6 5 4 4 4 4 5 5 4 4 3 3 3 3 3 4 4 4
5 4 2 3 4 5 5 5 6 6 6 6 6 6 5 5 4 4 4 5 6 7 7 8 8 8 8 7 6 6 6 6 6 6 5 5 5 5 5 5 5 5 5
7 6 5 6 6 7 7 6 6 6 6 7 7 6 6 6 5 5 5 5 6 6 7 8 8 9 9 8 7 7 7 8 8 8 8 7 7 7 7 7 7 6 6
9 8 8 8 9 9 9 8 8 8 8 8 9 8 8 7 7 6 6 6 6 7 7 8 8 9 9 9 8 7 8 8 9 10 10 10 10 10 10 10 9 8 8
11 10 10 10 11 11 11 11 11 10 10 11 11 10 9 9 8 8 8 8 8 8 8 8 9 10 9 9 8 8 8 8 9 11 12 12 12 12 12 12 11 11 10
11 11 12 12 12 13 13 13 13 13 13 13 12 12 11 11 11 11 11 11 11 11 11 10 10 11 10 10 9 9 8 9 10 11 12 13 14 14 14 14 14 13 13
11 12 12 13 13 14 14 15 15 15 15 15 14 14 14 14 14 14 14 14 14 15 14 13 13 13 12 11 11 10 10 10 11 12 13 14 15 16 16 16 16 16 15
13 14 14 14 15 16 16 17 17 16 16 16 16 16 17 17 17 17 17 17 17 18 17 17 16 16 15 14 14 13 13 13 13 14 14 15 16 17 17 18 18 17 17
16 17 17 17 18 18 19 19 19 19 19 19 19 19 19 20 20 20 21 21 21 21 21 20 19 19 18 17 16 16 16 16 16 16 16 16 17 18 18 19 20 20 20
21 21 21 21 22 22 23 23 23 23 23 23 23 24 24 24 24 24 24 24 24 23 23 23 22 21 21 20 19 19 19 20 20 19 19 19 19 20 20 21 21 22 21
25 25 26 26 26 27 28 28 28 28 28 29 29 29 29 29 29 28 28 28 27 26 26 26 25 24 24 23 22 22 23 23 24 23 23 22 22 22 22 22 22 23 23
30 30 31 31 31 32 32 33 33 33 33 33 33 33 34 34 34 33 32 32 31 30 30 29 28 28 27 26 25 25 26 26 27 27 27 26 26 25 25 25 25 24 24
36 36 36 36 36 36 37 37 36 36 36 37 37 37 38 38 38 38 37 37 36 34 34 33 31 30 30 29 28 28 28 29 30 31 31 31 30 29 28 28 27 27 26
42 41 41 40 40 41 41 41 40 40 40 40 41 41 42 41 42 43 42 42 40 39 37 36 35 33 32 32 31 31 31 32 33 34 34 34 34 33 32 31 30 29 28
45 45 45 44 44 45 44 44 43 43 42 41 43 44 44 44 44 45 45 45 45 43 42 40 38 36 35 34 33 33 33 34 34 36 37 37 37 36 35 34 33 32 31
45 46 46 46 46 46 47 46 45 46 45 44 43 44 45 46 47 47 48 47 46 44 43 42 40 37 36 35 35 34 34 34 35 36 38 38 39 38 38 36 35 34 33
42 44 44 45 46 47 48 48 48 49 47 45 44 45 46 46 47 48 47 46 46 44 43 42 39 38 36 36 36 35 35 34 35 35 37 39 39 40 39 37 36 35 35
41 43 44 45 46 47 47 48 49 49 48 46 46 47 45 45 46 46 45 45 46 43 41 39 37 37 36 35 35 35 35 35 35 35 36 37 38 39 39 38 37 36 35
42 44 45 46 48 49 49 50 52 51 50 49 49 49 48 48 47 46 44 45 42 40 38 37 35 34 33 33 34 34 35 35 36 36 35 35 36 37 37 37 36 35 34
42 43 45 47 49 50 51 52 53 53 52 51 50 50 49 47 47 47 46 42 37 36 35 33 32 32 32 32 33 34 35 35 36 36 35 34 34 35 35 36 35 34 34

GEFSSE_500_meanwind_042.txt.gz
Wind_Speed
8 7 5 5 5 5 6 7 8 8 9 9 9 10 10 10 11 11 10 10 9 9 9 10 10 10 10 10 11 10 10 10 10 10 10 9 9 7 6 5 5 4 4
6 5 3 2 3 4 5 6 7 8 8 8 9 9 9 9 10 11 10 10 9 9 8 8 9 9 9 9 9 9 9 9 9 9 9 9 8 7 6 5 5 4 3
4 3 2 1 2 4 5 6 7 8 8 8 8 9 9 9 9 10 10 10 10 9 9 9 8 8 8 8 8 9 9 8 8 8 8 8 8 7 6 6 4 4 3
3 2 1 1 2 4 5 6 7 8 9 9 9 9 9 8 9 9 10 10 10 10 10 9 9 9 8 8 8 8 8 8 7 7 7 7 7 7 6 6 5 4 4
3 3 2 1 2 3 4 6 7 8 9 9 9 9 9 8 8 8 9 9 9 10 10 10 10 10 10 9 9 8 8 8 7 7 6 6 7 7 7 6 6 5 5
4 4 3 2 2 3 4 5 7 8 8 9 9 9 8 8 8 8 8 8 8 9 10 10 10 10 10 10 9 9 9 8 8 8 7 7 8 7 7 7 7 7 5
6 6 5 5 4 4 5 5 6 7 8 9 9 9 9 8 8 7 7 7 7 8 8 9 9 10 11 11 10 10 9 9 8 7 7 7 8 8 8 8 7 8 6
8 8 8 8 7 7 7 7 7 8 9 9 9 10 9 9 9 8 8 8 8 8 8 9 9 9 10 11 11 10 10 10 9 8 8 8 8 8 8 8 8 8 8
11 11 11 12 11 10 9 9 10 10 10 11 11 11 11 10 10 10 10 9 9 9 9 10 10 10 10 11 11 11 11 10 10 10 9 9 9 9 9 9 9 9 9
14 14 14 15 15 14 13 12 12 12 12 12 13 13 13 12 12 12 12 11 11 11 11 11 11 11 11 11 11 11 12 12 11 11 11 11 10 10 10 10 10 10 10
15 15 16 17 17 17 16 15 14 14 14 14 14 15 14 14 13 14 14 14 14 14 14 14 14 14 14 13 13 13 13 13 13 12 12 12 12 11 11 11 11 11 11
14 15 15 16 17 17 17 17 16 16 16 16 17 17 16 15 15 15 16 16 16 17 17 17 17 17 17 16 15 15 15 14 13 13 13 13 13 12 12 12 12 12 12
14 15 15 15 16 17 17 18 18 18 18 19 19 19 18 18 17 17 18 18 19 20 20 20 20 21 21 20 19 19 18 17 16 15 14 14 14 14 13 13 13 13 14
16 17 17 17 18 19 19 20 20 21 21 21 22 22 22 22 21 21 21 21 22 23 23 23 23 24 24 24 23 23 23 21 20 18 17 16 16 15 15 14 14 15 15
21 21 21 21 22 22 23 23 24 24 24 25 25 26 27 27 26 26 26 26 27 27 27 27 27 27 27 27 27 27 27 26 24 22 20 19 18 18 17 17 17 16 16
26 26 26 26 26 27 27 28 28 28 28 29 29 29 30 31 31 31 31 31 32 32 32 32 31 31 31 31 31 32 32 31 29 27 25 23 22 21 20 19 19 19 18
31 31 30 31 31 31 31 32 32 33 33 33 33 33 34 35 35 35 35 36 36 36 36 36 36 35 35 35 35 35 36 35 33 32 30 27 25 24 23 22 21 21 21
37 36 35 36 36 36 37 37 37 37 37 37 37 37 37 38 38 38 39 39 40 40 40 40 40 39 39 39 38 38 38 38 37 36 35 32 30 28 26 25 24 24 23
42 41 41 41 41 41 41 41 40 40 40 40 41 41 40 40 40 41 42 42 42 43 44 44 43 42 41 41 42 41 40 40 40 39 38 36 34 31 29 27 26 25 25
45 45 45 44 45 45 44 43 42 42 42 42 42 42 42 42 42 43 44 44 45 45 46 46 45 45 43 43 43 43 41 41 41 40 39 38 36 34 32 30 28 27 27
46 46 45 45 45 45 44 43 43 43 43 43 43 44 44 44 45 46 45 46 47 47 47 46 45 44 44 44 44 43 42 41 40 39 37 37 37 36 34 32 31 29 28
43 44 43 43 43 43 44 44 44 44 44 44 45 45 45 46 47 47 46 47 47 46 45 44 44 42 42 41 41 41 40 38 37 36 35 35 34 34 33 33 31 31 30
41 41 42 42 42 43 43 43 44 44 45 45 46 46 47 48 48 48 48 47 48 47 46 45 43 41 41 40 39 38 37 37 36 33 32 32 33 32 33 32 31 30 29
40 40 41 41 42 43 44 44 45 45 46 46 47 48 49 49 49 49 50 49 48 47 47 45 43 42 40 39 38 37 36 34 33 31 31 31 31 31 31 30 30 29 28
39 40 41 41 42 43 44 46 46 47 47 48 49 50 51 51 51 51 50 50 49 48 47 45 43 42 40 38 36 36 35 33 31 29 28 29 30 30 29 29 29 29 28
37 38 39 40 41 42 43 45 46 47 48 49 50 51 51 52 52 51 51 51 50 49 47 45 43 42 40 38 36 35 34 33 30 29 29 29 29 30 29 29 28 28 27

GEFSSE_500_meanwind_048.txt.gz
Wind_Speed
8 9 10 11 11 12 12 13 13 14 14 14 14 14 14 14 15 15 15 15 15 15 15 14 14 13 13 13 13 13 13 12 11 11 11 10 9 8 7 6 6 6 6
5 6 8 9 9 10 11 11 12 12 13 13 13 14 13 13 13 14 14 14 14 14 14 14 14 13 13 12 12 12 12 11 11 10 10 10 9 8 7 6 5 5 4
4 5 6 7 8 8 9 9 10 11 11 12 12 12 13 13 13 12 12 12 13 13 13 13 13 13 13 12 11 11 11 11 11 10 10 10 9 8 8 7 5 5 4
3 4 5 5 6 7 7 8 8 9 9 10 11 11 12 12 12 11 11 11 11 12 12 13 13 13 13 13 11 11 10 10 10 10 9 9 8 8 7 6 5 4 3
4 4 5 5 5 5 6 6 7 7 8 9 9 10 11 11 11 11 10 10 10 10 11 12 12 13 14 14 13 11 10 9 9 10 10 9 8 8 7 6 5 4 3
6 6 6 6 6 6 6 7 7 7 7 8 9 9 10 11 11 11 10 10 10 10 10 11 11 12 13 14 14 12 11 9 8 8 9 9 8 8 7 6 4 4 3
8 8 8 8 8 9 9 9 9 9 9 9 9 10 10 11 11 11 11 11 10 10 10 11 11 12 12 13 13 13 12 10 9 8 8 9 8 8 7 6 5 4 4
9 9 9 10 10 11 11 11 11 11 11 10 11 11 11 11 12 12 11 11 11 11 11 11 12 12 12 12 13 13 12 11 11 9 9 9 8 8 8 7 6 5 5
9 10 10 11 11 12 13 13 13 13 13 12 12 12 12 13 13 13 12 12 12 12 12 12 13 13 13 13 13 13 13 12 12 11 10 10 10 9 8 8 8 7 7
9 10 11 11 12 12 13 14 14 14 14 13 13 13 13 13 14 13 13 13 13 13 13 14 14 15 15 15 15 15 14 14 13 13 12 12 11 10 10 9 10 9 9
10 10 10 11 12 12 13 13 14 14 14 14 14 14 14 14 14 14 14 14 14 15 15 15 16 17 17 17 17 17 17 16 15 15 15 14 13 12 11 11 11 11 11
10 11 10 10 11 12 13 14 14 14 15 15 15 16 16 16 16 16 16 16 16 16 17 17 18 19 19 19 20 19 19 19 18 18 18 17 16 15 14 13 13 13 12
13 13 14 14 14 14 15 16 16 16 17 17 18 18 18 18 18 18 18 18 19 19 19 20 20 20 21 21 22 22 22 22 22 21 21 21 19 18 17 17 16 15 14
16 17 18 19 19 19 19 20 20 20 20 20 20 21 21 21 21 21 21 22 22 22 22 23 23 23 23 24 24 25 25 25 25 24 24 23 23 22 21 20 19 18 17
22 21 22 23 24 24 24 24 25 25 24 24 24 24 25 25 24 24 24 25 25 26 26 26 26 27 26 27 28 28 28 28 28 28 28 27 27 26 25 23 22 21 20
27 26 26 27 29 29 29 29 29 28 28 28 28 28 28 29 29 29 28 28 29 29 29 29 29 29 28 29 30 30 31 31 31 30 31 31 30 29 28 27 26 25 23
31 32 32 33 33 34 34 34 34 33 32 31 31 31 31 31 32 32 32 31 31 31 31 31 31 31 31 31 32 32 32 32 33 33 33 33 32 32 32 31 29 28 27
34 35 36 37 36 37 38 39 39 38 36 35 34 34 33 33 33 34 34 34 33 33 32 32 33 33 33 33 33 34 33 33 33 34 35 35 35 33 33 33 33 31 30
35 35 37 37 37 38 39 39 38 39 38 37 37 36 36 36 35 36 36 35 36 35 35 35 35 35 34 35 35 35 34 33 33 34 34 34 35 34 33 33 33 33 32
35 35 36 37 37 38 38 39 37 36 37 38 38 39 38 38 38 38 37 37 37 37 37 37 36 37 36 36 36 36 36 35 34 34 33 33 34 33 33 32 32 32 32
34 35 36 37 38 39 39 40 38 36 36 38 39 39 39 40 39 39 39 39 39 38 38 37 38 39 38 38 37 36 36 35 34 33 33 33 32 31 32 32 32 32 31
35 36 37 39 39 39 39 41 41 39 38 38 40 41 41 41 41 41 40 40 41 41 40 40 41 40 38 38 38 37 36 34 34 34 33 32 31 31 31 31 31 32 32
35 37 37 38 39 40 40 40 40 40 39 39 40 41 41 42 42 42 41 41 42 43 42 41 42 41 40 39 39 39 37 35 34 33 33 32 31 29 29 30 30 30 30
33 34 36 38 38 39 40 40 40 40 39 39 40 40 41 41 41 41 41 41 42 42 42 42 42 42 42 40 40 40 39 37 35 33 33 31 30 28 27 28 30 30 29
32 33 35 36 37 38 39 39 39 39 38 38 38 38 39 39 39 40 40 40 41 42 42 43 43 43 43 42 41 41 39 38 36 35 33 31 29 28 27 26 27 27 27
32 33 35 36 36 37 38 39 39 39 38 38 38 38 38 39 40 40 41 42 42 43 44 44 45 44 44 43 42 42 41 39 37 36 33 31 30 29 27 26 26 25 26